Printer-friendly version
Follow the MPC on Twitter Follow the MPC on Facebook The MPC blog
Minor Planet Center

MPEC 2002-J02 : 2001 KB67

The following Minor Planet Electronic Circular may be linked-to from your own Web pages, but must not otherwise be redistributed electronically.

A form allowing access to any MPEC is at the bottom of this page.


Read MPEC 2002-J01 Read MPEC 2002-J03


M.P.E.C. 2002-J02                                Issued 2002 May 1, 22:21 UT

     The Minor Planet Electronic Circulars contain information on unusual
         minor planets and routine data on comets.  They are published
   on behalf of Commission 20 of the International Astronomical Union by the
          Minor Planet Center, Smithsonian Astrophysical Observatory,
                          Cambridge, MA 02138, U.S.A.

             Prepared using the Tamkin Foundation Computer Network

                              MPC@CFA.HARVARD.EDU
          URL http://cfa-www.harvard.edu/iau/mpc.html  ISSN 1523-6714

                                   2001 KB67

                           Revision to MPEC 2001-K53

Observations:
     K01K67B 1C2002 04 23.76697 22 06 23.82 -18 46 53.2          20.7 R      413
     K01K67B 1C2002 04 23.77203 22 06 23.49 -18 46 42.1          21.0 R      413
     K01K67B 1C2002 05 01.80876 21 59 02.52 -13 44 38.0          20.6 R      413

Observer details:
413 Siding Spring.  Observer R. H. McNaught.  1.0-m f/8 reflector + CCD.

First and last observations above in comparison with prediction:
Residuals in seconds of arc, reference and Delta-T
020423 413  1.2-  0.4+    020501 413  0.8-  0.7+    MPO 16097   -0.00026 day

Orbital elements:
2001 KB67                                                            PHA 0.007
Epoch 2002 May 6.0 TT = JDT 2452400.5                   MPC
M  74.84394              (2000.0)            P               Q
n   1.04322241     Peri.  243.79066     -0.60375323     -0.75032572
a   0.9628341      Node   246.01276     +0.79516177     -0.54287472
e   0.3798329      Incl.   17.13938     +0.05656673     -0.37722455
P   0.94           H   19.8           G   0.15           U   4
Residuals in seconds of arc
010530 704  0.4+  0.2+    010602 413  0.0   0.4-    010616 157  0.6+  0.3+
010530 704  0.7+  0.0     010603 941  1.4-  0.2+    010616 157  0.1+  0.5-
010530 704  0.4+  0.1+    010603 941  0.1-  0.6-    010616 157  0.4+  0.1-
010530 704  0.3+  0.1+    010603 941  0.2+  1.2-    010617 642  0.1+  0.3-
010530 704  0.5+  0.1+    010603 151  0.1-  0.1-    010617 642  0.0   0.2-
010530 046  0.9+  0.1+    010603 151  0.2-  0.1-    010617 642  0.2+  0.6+
010530 046  0.7+  0.6+    010603 151  0.1-  0.0     010617 642  0.0   0.1+
010530 046  0.4+  0.1+    010604 670  0.1+  0.2+    010618 704  1.0+  0.4+
010530 046  0.1+  0.5+    010604 658  0.1+  0.2+    010618 704  0.5+  0.6+
010530 046  0.5+  0.5+    010604 658  0.4+  0.2+    010618 704  1.7-  0.5+
010530 046  0.2+  0.0     010604 658  0.4+  0.2+    010618 704  0.4+  0.6+
010530 163  0.3-  0.1-    010604 670  0.2+  0.1+    010619 493  0.8+  0.0
010530 163  1.5+  0.4-    010604 670  0.2+  0.1-    010619 493  1.5+  0.2+
010530 163  2.2+  0.2-    010605 670  0.0   0.2+    010619 704  0.2+  0.5+
010530 620  0.1+  0.0     010605 670  0.5-  0.0     010619 704  0.2+  0.1+
010530 163  2.3+  0.3-    010605 670  0.5+  0.0     010619 704  0.0   0.1+
010530 163  0.8-  0.0     010607 118  0.8+  0.0     010619 704  0.2+  0.4+
010530 163  0.6-  0.3-    010607 118  0.9+  0.1+    010619 704  0.3+  0.1-
010530 620  0.3-  0.8+    010607 118  0.9+  0.2-    010619 658  0.1-  0.0
010530 620  1.3-  0.1-    010608 176  1.4+  1.8+    010619 658  0.1-  0.1+
010530 620  1.3-  0.7-    010608 176  0.2-  0.8+    010619 658  0.2-  0.0
010530 620  0.6-  0.1+    010608 176  1.5-  0.1-    010620 670  0.2-  0.5-
010530 620  1.2-  1.1+    010611 670  0.6+  0.0     010620 658  0.7+  0.1-
010530 118  0.2-  0.3-    010611 670  0.3+  0.3+    010620 658  0.7+  0.1-
010530 118  0.8-  0.9+    010611 670  0.7+  0.1+    010620 658  0.0   0.0
010530 118  1.0-  0.6+    010611 360  0.2-  0.1-    010620 670  0.3+  0.0
010530 118  1.1+  0.0     010611 360  0.4+  0.0     010620 107 (3.3-  1.7-)
010530 118  1.8-  1.0+    010611 151  0.2+  0.7+    010620 107 (4.2-  0.4-)
010531 918  0.3-  0.1+    010611 151  0.4-  0.2-    010620 470  1.2+  1.5+
010531 918  0.9-  0.4+    010611 151  0.6-  0.0     010620 470  0.3-  0.5-
010531 918  0.7-  0.3+    010611 151  0.6-  0.2-    010620 215  0.1+  0.2+
010531 918  0.8+  0.3+    010611 151  0.5-  0.2-    010620 215  0.0   0.2+
010531 658  0.1-  0.2+    010611 151  0.4-  0.1-    010620 215  0.5-  0.4+
010531 658  0.5+  0.3+    010611 587  0.6+  0.1-    010620 215  0.5+  0.4+
010531 658  0.1+  0.1+    010611 587  0.6+  0.4-    010620 215  0.0   0.2+
010531 704  0.3+  0.1+    010613 670  0.5+  0.0     010624 151  0.4+  0.1+
010531 704  0.1-  0.0     010613 670  0.3-  0.2-    010624 151  0.0   0.4-
010531 704  0.2+  0.3-    010613 670  0.7-  0.4-    010624 151  0.4+  0.5-
010531 704  0.2+  0.0     010613 118  0.2+  0.2-    010624 151  0.1-  0.7+
010531 704  0.4-  0.5+    010613 118  0.1-  0.1-    010624 151  0.5+  0.1-
010531 587  1.1-  0.6+    010613 118  0.2+  0.1-    010624 151  0.6+  0.1+
010601 860 (1.1-  4.2-)   010614 699  0.3+  0.3+    010625 670  0.4+  0.3+
010601 860  0.6-  0.8-    010614 699  0.0   0.3+    010625 670  0.2+  0.1+
010601 860  0.0   0.2-    010614 699  0.7-  0.5-    010625 670  0.5+  0.0
010601 413  0.3+  0.1+    010614 699  0.3-  0.2+    010625 118  0.5+  0.9-
010601 413  0.4+  0.0     010614 151  0.5+  0.1+    010625 118  0.4+  0.1+
010601 413  0.2+  0.0     010614 151  0.1+  0.2+    010625 118  0.5-  0.1-
010601 540  0.7+  0.3+    010614 151  0.1+  0.3+    010629 658  0.2+  0.0
010601 540  0.3+  0.1+    010614 151  0.0   0.2+    010629 658  0.1-  0.3+
010601 540  0.1+  0.5+    010615 157  0.9-  0.1+    010629 658  0.1+  0.4+
010601 540  0.2-  0.3+    010615 157  0.5-  0.5-    010630 608  0.0   0.9-
010601 540  0.2+  0.4+    010615 157  0.6+  0.3+    010630 608  0.0   0.6-
010601 540  0.0   0.4+    010615 118  0.3+  0.0     010630 608  0.3+  0.5-
010602 355  0.5+  1.5-    010615 118  0.3+  0.1+    010713 608  0.2+  0.2-
010602 355  0.1-  0.9-    010616 642  1.2-  0.4+    010713 608  0.4+  0.2+
010602 355  0.4-  1.0-    010616 642  2.2-  0.5-    010713 608  0.3+  0.4-
010602 355  0.2-  0.9-    010616 642  0.1-  0.0     010809 413  0.1+  0.4+
010602 413  0.1-  0.2-    010616 670  0.2-  0.3-    010809 413  0.3+  0.2-
010602 413  0.0   0.2-    010616 642  0.4-  0.0     010809 413  0.1-  0.1+
010602 413  0.1-  0.3-    010616 642  0.2+  0.3+    020423 413  0.1-  0.0
010602 413  0.0   0.1-    010616 670  2.2-  0.4+    020423 413  0.2+  0.1+
010602 413  0.1-  0.5-    010616 670  0.4-  0.3+    020501 413  0.0   0.3+

Ephemeris:
2001 KB67                a,e,i = 0.96, 0.38, 17                  q = 0.5971
Date    TT    R. A. (2000) Decl.     Delta      r     Elong.  Phase     V
2002 04 26    22 04.10   -17 24.6    0.399    0.938    68.7    87.9    20.8
2002 05 06    21 55.81   -11 02.1    0.395    1.004    78.0    79.4    20.6
2002 05 16    21 47.86   -04 22.5    0.385    1.065    87.3    71.5    20.4
2002 05 26    21 37.15   +02 30.5    0.371    1.120    96.8    63.9    20.2
2002 06 05    21 21.13   +09 29.1    0.357    1.168   106.6    56.3    19.9
2002 06 15    20 57.50   +16 09.4    0.348    1.210   116.3    48.8    19.7
2002 06 25    20 25.59   +21 45.7    0.346    1.246   124.7    42.1    19.6
2002 07 05    19 47.81   +25 24.9    0.356    1.275   130.1    37.6    19.6
2002 07 15    19 09.92   +26 35.9    0.379    1.298   131.4    36.0    19.7
2002 07 25    18 38.35   +25 35.7    0.413    1.315   128.8    37.0    20.0
2002 08 04    18 16.24   +23 11.7    0.458    1.325   123.8    39.5    20.3
2002 08 14    18 03.59   +20 07.3    0.508    1.329   117.8    42.4    20.6
2002 08 24    17 58.97   +16 52.9    0.562    1.326   111.7    45.1    20.9
2002 09 03    18 00.62   +13 44.3    0.616    1.317   105.7    47.5    21.1
2002 09 13    18 07.22   +10 48.4    0.669    1.301   100.0    49.6    21.3
2002 09 23    18 17.73   +08 09.1    0.718    1.279    94.6    51.4    21.5
2002 10 03    18 31.38   +05 46.9    0.761    1.251    89.4    53.1    21.6
2002 10 13    18 47.73   +03 41.4    0.797    1.216    84.5    54.7    21.7
2002 10 23    19 06.37   +01 52.3    0.825    1.175    79.9    56.4    21.8

Timothy B. Spahr             (C) Copyright 2002 MPC           M.P.E.C. 2002-J02

Read MPEC 2002-J01 Read MPEC 2002-J03


MPEC number:

Enter an MPEC number in one of the following forms:

  • 1997-B01 (the full form)
  • J97B01 (the packed version of the full form)
  • B01 (the abbreviated form)

Valid HTML 4.01!